sat.trackr.live / text

‹ back to catalog

GPS BIII-8 (PRN 21)

NORAD 64202 · 2025-116A

PAYLOAD ACTIVE UNKNOWN

§ Identity

Operator
Country
US
Launch date
2025-05-30
Launch site
AFETR
Launch vehicle
Mass (kg)
RCS (m²)

Purposes: nav

External: N2YO · Heavens-Above · Gunter

§ Orbital elements

Epoch: 2026-09-17T07:40:50.872800Z

Period
717.96 min
Inclination
55.2945°
Eccentricity
0.0009047
Mean motion
2.00569445 rev/d
Perigee alt
20,157.7 km
Apogee alt
20,205.7 km
Semi-major
26,559.8 km
B*
0.0000e+0
RAAN
27.4305°
Arg perigee
334.6534°
Mean anomaly
24.5865°
Rev number
971

§ Raw data

GPS BIII-8  (PRN 21)1 64202U 25116A   26260.32003325 -.00000081  00000+0  00000+0 0  99912 64202  55.2945  27.4305 0009047 334.6534  24.5865  2.00569445  9717

JSON: /api/v1/satellites/64202 · /tle

For live sub-satellite position, see the globe view (requires WebGL).

§ Visibility from observer

Set your observer location to see the next 7 days of passes ≥ 10°. The values pass through the URL so the page stays shareable.

No JS? Fill the form by hand. The geolocation button needs JavaScript.